Tracking 19794 objects as of 22-Jul-2019
HD Live streaming from Space Station
objects crossing your sky now

COSMOS 2041

Track COSMOS 2041 now!
10-day predictions
COSMOS 2041 is classified as:


NORAD ID: 20235
Int'l Code: 1989-074D
Perigee: 1,402.9 km
Apogee: 1,418.0 km
Inclination: 82.6 °
Period: 113.9 minutes
Semi major axis: 7781 km
RCS: 1.3161 m2 (large)
Launch date: September 14, 1989
Source: Commonwealth of Independent States (former USSR) (CIS)
Launch site: PLESETSK MISSILE AND SPACE COMPLEX (PKMTR)
aabbcc
Your satellite tracking list
Your tracking list is empty




NASA's NSSDC Master Catalog

Two Line Element Set (TLE):
1 20235U 89074D   19203.01931118  .00000013  00000-0  10986-4 0  9991
2 20235  82.5831  25.2711 0009707  76.9825  81.9900 12.64777623378133
Source of the keplerian elements: AFSPC